Regional Weather Roundup
Issued by NWS

Home | Current Version | Previous Version | Graphics & Text | Print | Product List | Glossary On
Versions: 1 2 3 4 5 6 7 8 9 10 11 12 13 14 15 16 17 18 19 20 21 22 23 24 25 26 27 28 29 30 31 32 33 34 35 36 37 38 39 40 41 42 43 44 45 46 47 48 49 50
000
ASUS44 KMEG 251510
RWRTN
TENNESSEE HOURLY STATE WEATHER ROUNDUP
NATIONAL WEATHER SERVICE MEMPHIS TN
900 AM CST SUN JAN 25 2015

TNZ002-004-019-021-049-052-054-088>092-251600-
WEST TENNESSEE

CITY           SKY/WX    TMP DP  RH WIND       PRES   REMARKS
MEMPHIS INTL   CLOUDY    47  36  65 S13       29.73F
NWS MEMPHIS      N/A     44 N/A N/A MISG        N/A
JACKSON        PTSUNNY   46  35  65 S13       29.72F
DYERSBURG      CLOUDY    45  27  49 S5        29.70F
UNION CITY     MOSUNNY   41  36  81 S7        29.68F
PARIS          SUNNY     39  32  75 S8        29.70F WCI  34
LEXINGTON      SUNNY     41  34  75 S10       29.72F
SAVANNAH       SUNNY     43  36  75 S10       29.77F
$$

TNZ008-025-027-028-033-062-065-066-251600-
NORTH MIDDLE TENNESSEE

CITY           SKY/WX    TMP DP  RH WIND       PRES   REMARKS
NASHVILLE      CLOUDY    42  34  73 S10       29.77F
CLARKSVILLE    CLOUDY    44  34  67 S10       29.71F
SMYRNA         CLOUDY    40  33  76 S8G17     29.80F WCI  34
COOKEVILLE     SUNNY     43  34  70 S9        29.80F
CROSSVILLE     MOSUNNY   39  31  72 VRB3      29.82S
$$

TNZ061-075-076-078-094-096-097-251600-
SOUTH MIDDLE TENNESSEE

CITY           SKY/WX    TMP DP  RH WIND       PRES   REMARKS
FAYETTEVILLE   SUNNY     39  32  75 MISG      29.84F
TULLAHOMA      SUNNY     39  34  81 S10       29.85R WCI  32
WINCHESTER     SUNNY     41  34  75 SE3       29.87R
MCMINNVILLE    SUNNY     46  34  61 SW12      29.82R
COLUMBIA         N/A     43  43 100 S15       29.76F
SHELBYVILLE    SUNNY     43  36  75 S12       29.83F
$$

TNZ017-018-042-046-047-251600-
NORTHEAST TENNESSEE

CITY           SKY/WX    TMP DP  RH WIND       PRES   REMARKS
TRI CITIES     PTSUNNY   35  30  82 CALM      29.88S
ELIZABETHTON   SUNNY     36  28  75 NE5       29.88S WCI  32
$$

TNZ012-013-036-069-073-074-251600-
CENTRAL EAST TENNESSEE

CITY           SKY/WX    TMP DP  RH WIND       PRES   REMARKS
KNOXVILLE      MOSUNNY   42  32  67 W7        29.86F
OAK RIDGE      MOSUNNY   40  31  70 VRB3      29.89S
GATLINBURG     SUNNY     36  30  80 E3        29.86F
MORRISTOWN     SUNNY     37  32  81 NE3       29.87S
$$

TNZ083-085-099-251600-
SOUTHEAST TENNESSEE

CITY           SKY/WX    TMP DP  RH WIND       PRES   REMARKS
CHATTANOOGA    MOSUNNY   40  32  73 S5        29.89F
$$

SKY/WX REPORTED AS FAIR MEANS FEW OR NO CLOUDS BELOW
12 THOUSAND FEET.




USA.gov is the U.S. government's official web portal to all federal, state and local government web resources and services.